BREEZE-KM DEB, 41720

Orbit data source: Space-Track

BREEZE-KM DEB, 41720 is space debris in LEO originally from a launch on Tue, 31 Mar 2015 UTC launched from the Plesetsk Missile And Space Complex (PKMTR). Debris objects in space refer to the collection of defunct objects orbiting the Earth. Examples of debris include non-operational satellites, rocket bodies, and fragments generated from explosions, collisions, or faulty payload assembly.

Loading next visibility...
Identifier
41720, 2015-020H
Orbit
LEO
Country
Flag of CISCIS
Related business
Manufacturer
Khrunichev
Mission
Spacecraft
Bus & Motor
Unknown
Mass
Unknown
Launch date (UTC)
2015-03-31 (10 years ago)
Launch vehicle
Unknown
Launch site
Plesetsk Missile And Space Complex (PKMTR)
Object type
Payload
Rocket body
Debris
Shape & HBR
Unknown
Radar Cross Section
Small (<0.1 m²)

Expand to show TLE details & history
Last TLE update: 5 days ago

TLE from 5 days ago
0 BREEZE-KM DEB
1 41720U 15020H   25239.02829197  .00000070  00000-0  20099-3 0  9991
2 41720  82.4929 354.1289 0229166 221.1170 137.2474 12.90988784480772
Epoch: 2025-08-27T00:40Z
TLE epoch observation values (Epoch: 2025-08-27T00:40:44.426Z)
Latitude
0.00006°
Longitude
8.43227°
Altitude
1,431.368 km
Speed
7.084 km/s
True Right ascension
23h 36m 30s
True Declination
0° 00' 00"
Sunlit
Object was in full shadow at epoch
Visualization orbit readout
Latitude
Unknown
Longitude
Unknown
Altitude
Unknown
Speed
Unknown
Apparent Right ascension
Unknown
Apparent Declination
Unknown
Sunlit
N/A
Visualization observer readout
Local Sidereal Time
13:53:38
Azimuth
Unknown
Elevation
Unknown
Doppler factor
Unknown
Orbital elements
Apogee altitude
1,470.723 km
Perigee altitude
1,119.044 km
Semi-major axis
7,673.02 km
Eccentricity
0.02292
Inclination
82.4929°
RAAN
354.1289°
Arg. of periapsis
221.117°
True anomaly
138.99303°
Mean anomaly
137.2474°
Eccentric anomaly
138.12387°
Mean motion
3.22919 °/min
Orbital period
111.48 mins
BSTAR
0.00020099
Loading maneuver chart data...
Computing Atmospheric mass density...
Loading historical data...
Loading historical data...
Loading historical data...
Loading historical data...
Loading historical data...
Loading historical data...
Loading historical data...

Documentation

Showing up to 5 results
|